Wind_Speed
8 7 7 7 7 6 6 7 7 7 7 7 7 7 7 7 7 6 6 6 6 5 5 5 5 5 5 5 4 4 3 3 4 4 4 5 5 6 6 6 6 7 7
7 7 7 7 6 6 6 6 6 7 6 6 6 7 6 6 6 6 6 6 6 6 5 5 5 5 5 5 5 4 4 4 5 5 5 6 6 6 6 7 6 6 7
5 6 7 6 5 5 5 5 6 6 6 6 6 6 6 6 6 6 5 5 6 6 5 5 5 5 5 5 5 5 5 5 5 6 6 6 7 7 7 7 8 7 8
3 4 5 5 5 5 5 5 5 5 5 5 5 5 5 5 5 6 6 6 6 5 5 5 5 5 5 5 5 6 6 6 6 7 7 8 8 8 8 8 9 9 10
4 4 3 3 4 5 5 5 5 5 5 5 5 5 5 5 6 6 6 6 6 6 6 6 6 6 6 6 6 7 7 7 8 8 9 9 9 9 10 10 10 11 12
4 3 2 3 4 4 5 5 5 5 5 5 5 5 5 5 5 6 6 7 6 6 6 7 7 7 7 7 8 8 9 9 10 10 10 11 11 11 12 12 12 12 13
4 4 4 4 4 5 5 5 5 5 5 5 5 5 5 5 5 6 7 7 7 7 7 7 8 8 8 8 9 9 10 10 11 12 12 12 13 13 14 14 14 14 15
5 5 6 6 5 5 5 5 5 6 6 6 6 5 6 6 6 6 7 8 8 9 9 9 9 10 10 11 11 11 11 12 13 13 13 13 14 14 14 15 15 16 16
6 6 6 6 5 4 4 5 6 6 7 7 7 7 7 7 7 7 8 9 9 10 10 10 11 12 13 13 14 14 13 14 14 14 14 14 14 15 15 16 16 16 16
6 7 6 6 6 5 5 6 6 7 7 8 8 7 7 7 7 7 8 9 9 10 11 11 12 13 14 14 15 15 15 15 16 16 15 15 15 15 15 16 17 17 17
7 8 8 8 8 7 7 7 8 9 9 9 9 9 9 8 8 8 9 10 11 11 12 12 14 14 15 14 15 15 16 16 16 16 15 15 15 16 16 16 17 17 17
9 9 9 9 9 9 9 9 9 9 10 10 10 10 10 10 10 11 11 11 12 13 13 14 15 16 16 16 16 16 16 16 16 15 15 15 16 16 16 16 17 17 17
11 11 10 11 11 11 12 11 11 11 11 11 11 12 12 12 12 13 13 13 14 14 15 15 16 16 16 16 17 17 17 17 16 16 16 16 16 16 17 17 18 18 17
13 13 13 12 13 14 13 13 13 13 13 13 13 13 14 15 15 15 15 16 16 16 17 17 17 17 17 17 18 18 18 18 17 17 17 17 17 18 18 18 18 18 18
16 16 16 16 15 15 15 15 15 15 15 15 15 15 16 16 17 17 17 18 18 18 19 19 19 19 19 19 19 19 19 19 19 18 18 18 18 19 19 19 18 18 17
19 19 19 18 18 17 17 17 17 17 17 17 17 17 18 18 18 19 19 20 20 20 20 20 20 20 20 20 20 20 20 20 20 20 19 19 19 19 18 18 17 17 17
21 21 21 20 20 20 19 20 20 20 19 19 19 20 20 20 21 20 21 21 21 21 21 21 20 21 21 21 21 21 21 21 21 21 22 21 21 20 19 18 18 18 18
22 22 22 22 21 22 22 22 22 22 22 22 22 22 23 23 23 23 22 22 22 22 23 22 22 22 22 22 22 23 23 22 22 22 22 22 21 20 19 19 19 19 19
24 23 22 22 23 24 25 24 25 25 26 25 25 25 24 24 24 24 24 24 24 25 25 24 24 24 24 24 24 24 24 23 22 22 22 22 22 21 20 20 20 21 21
26 26 25 25 25 25 26 27 27 27 27 27 27 27 26 26 26 25 26 26 26 26 26 26 26 26 26 26 26 26 25 24 23 23 23 22 22 22 22 22 22 22 22
27 28 28 27 27 27 27 28 28 29 29 28 28 28 28 27 27 27 27 27 28 28 28 28 28 28 27 28 27 27 27 25 25 24 23 23 23 23 23 23 23 23 23
29 29 29 28 29 29 29 29 29 29 29 29 29 29 29 28 28 28 28 29 29 29 30 30 29 29 29 28 28 27 26 26 26 25 24 24 24 24 24 25 25 24 24
30 30 30 29 29 30 30 29 29 29 29 28 29 29 29 29 29 29 29 30 30 30 30 29 29 29 29 29 29 28 28 28 27 26 26 26 26 26 26 26 26 26 27
30 30 30 29 29 29 30 30 30 30 29 29 29 30 30 30 30 30 31 31 30 30 30 30 29 28 28 28 29 29 29 28 27 27 28 28 28 28 28 28 28 28 28
30 31 30 29 29 28 28 29 29 29 29 29 30 30 30 31 31 31 31 31 31 31 31 31 30 29 29 29 29 29 28 28 28 28 28 29 29 30 29 29 29 29 30
30 30 30 29 28 28 29 29 28 29 30 29 30 30 30 30 31 31 31 32 32 31 30 31 30 29 29 29 30 29 29 29 29 29 29 29 30 30 30 29 30 30 31
Wind_Direction
37 38 44 45 46 47 49 48 43 41 40 39 38 35 36 37 38 41 43 40 40 41 40 36 27 17 7 359 355 353 338 323 322 319 310 305 298 294 292 289 287 285 281
32 34 45 41 39 41 43 41 37 37 36 33 28 25 25 25 27 31 32 30 30 30 25 18 11 3 358 353 348 339 329 325 317 312 309 311 307 300 296 286 282 286 283
18 25 26 32 33 33 36 35 33 27 24 25 20 18 17 18 17 16 14 14 17 20 16 6 356 350 344 340 335 334 326 322 314 308 307 306 303 300 299 296 288 286 288
1 17 21 27 27 25 23 22 16 14 11 12 12 14 12 10 7 4 2 0 1 0 359 357 347 341 338 337 327 324 318 312 306 306 307 309 306 300 292 289 290 289 288
344 2 8 15 20 20 12 7 5 2 2 3 5 7 4 1 359 357 355 352 348 350 350 348 343 338 336 338 333 325 315 311 309 305 303 303 302 300 293 287 287 286 285
324 335 331 345 7 5 357 357 3 6 2 360 356 353 352 350 351 356 352 347 341 341 341 338 334 328 328 328 324 323 319 317 313 307 304 302 299 296 295 290 287 286 285
319 321 320 332 339 340 344 350 356 0 357 352 347 346 348 348 346 346 343 342 343 340 333 335 331 328 326 322 317 314 313 312 310 305 302 301 301 298 297 295 292 289 287
312 314 314 314 320 323 330 343 350 355 355 352 347 345 345 346 342 337 336 337 335 334 335 333 329 328 326 322 318 312 308 308 305 303 302 301 300 298 297 297 294 290 290
311 308 305 306 308 310 324 333 343 345 345 345 341 337 335 331 331 332 333 334 332 330 329 326 322 322 321 319 316 314 308 308 306 304 303 301 299 299 297 296 294 293 292
299 298 301 305 310 306 313 323 327 332 332 330 330 331 328 324 325 329 330 329 327 324 324 322 321 319 317 316 314 312 308 309 310 306 302 300 298 298 297 296 295 295 293
295 301 298 297 302 304 305 311 315 319 322 321 319 319 319 318 318 321 322 322 320 318 316 315 315 315 315 314 315 314 310 310 311 308 305 302 299 299 299 296 295 294 293
293 293 289 287 289 294 296 300 303 307 310 312 312 310 312 314 315 315 314 312 312 312 311 311 311 310 312 311 311 314 315 312 310 309 308 307 303 301 302 297 293 293 291
288 292 289 286 286 289 290 292 295 299 301 304 306 306 308 308 310 309 308 306 307 309 310 311 311 311 309 309 309 310 314 313 310 308 307 306 304 303 303 302 298 294 291
286 286 286 290 288 286 284 286 288 293 295 298 300 301 303 304 305 305 304 302 303 305 306 307 308 309 309 307 304 304 307 308 308 307 305 304 303 303 302 302 302 297 292
286 285 284 287 288 286 281 281 284 288 291 293 295 297 299 299 300 301 300 301 301 301 300 301 303 305 303 303 303 302 303 303 303 303 302 302 303 303 303 301 301 297 292
285 284 283 284 284 282 281 281 283 285 287 290 292 293 295 297 296 296 297 299 300 300 298 299 298 300 301 302 302 302 302 301 300 300 300 303 304 304 303 301 302 301 294
284 284 283 283 283 281 282 281 280 282 283 285 289 291 293 294 293 294 295 296 297 296 297 299 298 299 300 304 304 301 300 299 299 301 303 304 304 303 303 303 301 300 297
284 286 286 284 282 281 281 280 281 279 279 282 283 285 288 290 291 291 293 294 294 293 295 298 299 297 297 298 299 297 295 297 298 299 300 301 301 302 301 301 301 300 299
283 285 285 282 282 281 281 281 280 278 278 280 283 284 286 288 290 290 290 291 292 293 294 294 295 295 294 295 294 293 292 293 295 296 298 300 300 299 300 301 302 300 299
281 282 283 283 282 281 281 280 281 280 279 278 280 283 285 288 288 289 290 291 291 291 291 292 293 293 292 292 292 290 289 290 293 294 295 297 299 297 297 299 300 298 297
279 280 280 281 282 282 281 281 281 280 279 279 279 280 282 285 286 288 290 291 292 291 290 290 290 290 290 290 291 290 287 287 289 290 292 293 295 296 294 295 296 296 296
277 280 280 281 282 283 283 283 282 279 277 278 279 280 281 283 284 285 288 290 290 291 291 290 288 288 288 287 289 290 288 288 289 288 290 291 292 293 293 293 295 295 296
276 278 280 281 283 282 282 283 282 279 278 277 278 278 280 281 282 285 288 289 289 291 293 290 287 287 288 288 288 287 288 288 287 286 288 289 291 292 292 293 293 293 294
275 277 280 281 282 282 281 282 280 278 277 276 276 277 278 280 282 285 287 289 289 290 290 290 288 287 289 289 288 287 286 285 285 286 286 287 288 291 292 291 293 293 293
276 277 280 280 281 281 282 282 280 278 277 276 276 277 278 280 281 284 287 289 290 290 289 288 287 286 287 287 286 285 286 286 286 286 287 287 288 290 291 291 292 292 291
274 276 278 279 279 281 283 283 282 279 277 277 277 278 279 281 282 284 285 287 289 289 288 286 284 285 285 284 283 284 286 285 284 285 287 288 289 289 290 290 291 291 290
Height
5919 5918 5917 5916 5915 5914 5914 5913 5912 5911 5910 5909 5908 5907 5906 5905 5905 5904 5902 5901 5900 5899 5898 5898 5897 5896 5895 5894 5894 5893 5892 5892 5891 5891 5891 5890 5889 5888 5887 5886 5885 5884 5883
5920 5919 5917 5917 5916 5915 5914 5913 5912 5911 5910 5909 5908 5907 5906 5905 5905 5904 5902 5901 5900 5899 5898 5897 5896 5896 5895 5894 5893 5892 5891 5891 5890 5890 5889 5888 5887 5886 5885 5884 5883 5882 5881
5920 5919 5918 5917 5916 5916 5915 5914 5913 5912 5911 5910 5908 5907 5906 5905 5904 5903 5902 5901 5900 5899 5898 5897 5896 5895 5894 5893 5891 5891 5890 5889 5889 5888 5887 5886 5885 5884 5883 5881 5880 5880 5879
5919 5919 5918 5917 5917 5916 5914 5913 5913 5912 5910 5909 5908 5907 5906 5905 5904 5903 5902 5900 5899 5898 5897 5896 5894 5893 5892 5891 5890 5889 5888 5887 5886 5885 5885 5884 5883 5882 5881 5880 5878 5877 5876
5919 5918 5917 5917 5916 5915 5914 5913 5912 5911 5910 5909 5908 5907 5906 5905 5903 5902 5900 5899 5898 5897 5895 5894 5893 5892 5890 5889 5888 5887 5886 5885 5884 5883 5882 5881 5880 5879 5878 5877 5876 5874 5873
5917 5917 5917 5916 5915 5914 5914 5913 5911 5910 5909 5908 5907 5906 5905 5903 5902 5900 5899 5898 5896 5895 5894 5893 5892 5890 5889 5888 5886 5885 5884 5882 5881 5880 5879 5878 5877 5875 5874 5873 5872 5871 5870
5916 5916 5915 5915 5914 5913 5912 5911 5910 5909 5908 5907 5906 5905 5904 5902 5901 5899 5898 5897 5895 5894 5892 5891 5889 5888 5887 5886 5884 5883 5881 5880 5878 5877 5876 5874 5873 5871 5870 5869 5868 5866 5865
5915 5914 5914 5913 5912 5912 5911 5910 5909 5908 5907 5906 5905 5904 5902 5901 5900 5898 5897 5895 5894 5892 5891 5889 5888 5886 5885 5883 5882 5880 5878 5876 5875 5873 5872 5870 5869 5867 5866 5864 5863 5862 5860
5913 5912 5912 5912 5911 5910 5910 5908 5907 5906 5905 5904 5903 5902 5901 5899 5898 5896 5895 5894 5892 5891 5889 5888 5886 5885 5883 5881 5879 5876 5875 5873 5871 5869 5868 5866 5864 5863 5861 5859 5858 5857 5855
5910 5910 5910 5910 5909 5909 5908 5907 5906 5905 5904 5902 5901 5900 5898 5897 5896 5895 5893 5892 5890 5889 5887 5885 5884 5882 5880 5878 5875 5873 5871 5869 5867 5864 5863 5861 5860 5858 5856 5855 5853 5852 5851
5908 5907 5908 5908 5907 5907 5906 5905 5904 5903 5901 5900 5899 5898 5896 5895 5893 5892 5891 5889 5888 5886 5884 5882 5881 5879 5876 5874 5872 5869 5867 5865 5862 5860 5858 5856 5855 5853 5851 5850 5848 5846 5845
5905 5905 5905 5904 5904 5904 5903 5902 5901 5900 5899 5897 5896 5895 5893 5892 5890 5889 5888 5886 5885 5883 5881 5879 5877 5875 5873 5870 5868 5866 5864 5861 5858 5855 5853 5852 5850 5848 5846 5844 5842 5840 5839
5901 5901 5901 5900 5900 5900 5899 5899 5898 5897 5896 5894 5893 5891 5890 5888 5887 5886 5884 5883 5881 5879 5877 5875 5873 5871 5868 5866 5864 5862 5860 5857 5854 5851 5849 5847 5845 5843 5841 5839 5837 5835 5833
5898 5897 5896 5895 5895 5895 5895 5894 5894 5893 5892 5890 5889 5888 5886 5885 5883 5882 5880 5878 5876 5874 5872 5871 5868 5866 5864 5862 5859 5857 5855 5853 5850 5847 5845 5843 5841 5839 5837 5834 5832 5830 5828
5893 5893 5892 5891 5890 5889 5890 5890 5889 5888 5887 5886 5885 5883 5882 5880 5879 5877 5875 5873 5871 5869 5867 5865 5863 5861 5859 5857 5854 5852 5850 5848 5845 5843 5841 5838 5836 5834 5831 5829 5827 5825 5823
5888 5888 5887 5887 5886 5886 5885 5884 5883 5882 5882 5881 5880 5878 5877 5875 5874 5872 5870 5868 5866 5864 5862 5860 5858 5856 5853 5851 5849 5846 5844 5842 5840 5838 5836 5833 5831 5829 5826 5823 5821 5819 5818
5883 5883 5882 5881 5881 5880 5879 5878 5877 5876 5876 5875 5874 5873 5871 5870 5868 5866 5864 5862 5860 5858 5856 5854 5852 5850 5848 5846 5843 5841 5839 5837 5835 5833 5831 5828 5826 5824 5821 5818 5816 5814 5812
5878 5877 5876 5875 5875 5874 5873 5872 5870 5870 5870 5869 5868 5867 5865 5864 5862 5860 5858 5856 5854 5852 5850 5848 5846 5844 5842 5840 5838 5836 5833 5832 5830 5828 5825 5823 5821 5818 5815 5813 5811 5808 5806
5871 5871 5870 5869 5868 5867 5867 5866 5864 5863 5863 5862 5861 5859 5858 5857 5855 5853 5851 5849 5847 5845 5843 5842 5840 5837 5836 5833 5831 5829 5827 5826 5824 5822 5819 5817 5815 5812 5810 5808 5805 5803 5801
5864 5863 5862 5861 5861 5860 5859 5858 5857 5855 5855 5854 5853 5852 5851 5849 5848 5846 5844 5842 5840 5838 5836 5834 5832 5830 5828 5826 5824 5822 5821 5819 5817 5815 5813 5811 5809 5807 5804 5802 5799 5797 5795
5857 5856 5855 5854 5853 5852 5851 5850 5849 5847 5847 5845 5844 5844 5843 5842 5840 5839 5837 5835 5833 5830 5828 5826 5824 5822 5821 5819 5817 5815 5813 5812 5810 5808 5806 5804 5802 5800 5798 5795 5793 5791 5788
5850 5849 5848 5846 5846 5844 5843 5841 5840 5838 5837 5836 5836 5835 5834 5833 5832 5830 5829 5827 5824 5822 5820 5818 5816 5814 5812 5811 5809 5807 5805 5804 5802 5801 5799 5797 5795 5793 5791 5788 5786 5784 5782
5841 5841 5840 5839 5837 5836 5834 5833 5831 5829 5828 5827 5827 5827 5826 5825 5824 5822 5821 5818 5816 5814 5811 5809 5807 5806 5804 5803 5801 5799 5798 5796 5794 5793 5792 5790 5788 5786 5783 5781 5779 5776 5774
5833 5832 5831 5830 5829 5827 5825 5823 5822 5820 5820 5820 5819 5818 5817 5816 5815 5814 5812 5810 5808 5805 5803 5801 5800 5798 5797 5795 5793 5791 5789 5788 5786 5785 5783 5782 5779 5777 5775 5773 5771 5768 5766
5824 5823 5822 5821 5820 5818 5817 5815 5813 5812 5811 5811 5810 5810 5809 5808 5807 5805 5804 5802 5800 5797 5795 5793 5792 5790 5789 5787 5785 5783 5781 5780 5778 5776 5774 5772 5770 5769 5767 5765 5762 5760 5757
5815 5814 5814 5812 5811 5810 5808 5807 5805 5804 5803 5802 5802 5801 5800 5799 5798 5796 5795 5792 5790 5788 5786 5785 5783 5781 5780 5778 5777 5775 5773 5770 5769 5767 5765 5763 5761 5759 5758 5755 5753 5751 5748